GEOSCAN 2 (RS92S2)

Last updated on Mon Sep 15 2025 00:03:10 GMT+0000 (Coordinated Universal Time)

1 64890U 25155Q 25257.24016899 .00008377 00000+0 35691-3 0 9996 2 64890 97.4190 221.8275 0010493 67.8598 292.3752 15.23161775 38667
UTC large
Height (km)
Speed (km/s)
/
Latitude / Longitude
Inclination (degrees)
Orbital Period (minutes)
Azimuth
Elevation
Range (km)
Doppler Factor

Next 0 passes for location: London (51.5072 / 0.1276)

Sorry there are no passes over London.